Погода в Сайншанде

Монголия     44°53′40″N   110°08′10″E
темп.,
°C
ветер,
м/с
пор.,
м/с
влажн.,
%
обл.,
%
осадки,
мм/ч
давл.,
гПа
погр.,
м
12 мая, ср
ср1223:00+11ссв71025100 0.0 1013576
02:00+9ссв3333100 0.0 101469
05:00+8ссв3336100 0.0 101476
08:00+8св1136100 0.0 1015372
11:00+10зсз2230100 0.0 1014888
14:00+12сз2222100 0.0 10121131
17:00+13сз1119100 0.0 10101073
20:00+11юз122170 0.0 101112
13 мая, чт
чт1323:00+9юз112490 0.0 101110
02:00+8ю22250 0.0 101010
05:00+7ююв1227100 0.0 100910
08:00+11ююв3321100 0.0 1009217
11:00+16ю4419100 0.0 1007951
14:00+19ююз4420100 0.0 10041148
17:00+20юз3422100 0.0 10021205
20:00+18ю2226100 0.0 100126
14 мая, пт
пт1423:00+17ююв5827100 0.0 1001130
02:00+17ю3629100 0.0 1001111
05:00+9св101361100 0.0 1006507
08:00+7св111361100 0.1 1010751
11:00+8св91044100 0.2 10111002
14:00+9ссв6742100 0.2 1012945
17:00+12ссв6724100 0.0 10111404
20:00+11ссв461737 0.0 1012110
15 мая, сб
сб1523:00+9ссв33204 0.0 101541
02:00+8ссв222497 0.0 101613
05:00+6ссв222936 0.0 101611
08:00+10всв1122100 0.0 1018177
11:00+13зюз1117100 0.0 10171761
14:00+16зсз34140 0.0 10152192
17:00+18зсз46130 0.0 10132396
20:00+17зюз22170 0.0 101320
16 мая, вс
вс1623:00+14ююз58194 0.0 1014159
02:00+13з44253 0.0 101561
05:00+11ссз46290 0.0 101680
08:00+14с45220 0.0 1017252
11:00+19ссз45170 0.0 10161500
14:00+21сз45160 0.0 10142761
17:00+22сз24150 0.0 10122855
20:00+20сз12180 0.0 101218